Погода в Кохме

Россия / Ивановская область     56°55′57″N   41°05′35″E
темп.,
°C
ветер,
м/с
пор.,
м/с
влажн.,
%
обл.,
%
осадки,
мм/ч
давл.,
гПа
погр.,
м
18 мая, ср
ср1800:00+8ссв51288100 0.3 1006623
03:00+4с4109657 0.3 1007314
06:00+4с4108968 0.0 1009347
09:00+9с57629 0.0 10101149
12:00+12ссз5750100 0.0 10101882
15:00+11сз5760100 0.1 10101467
18:00+8сз5980100 0.4 10121089
21:00+3сз379433 0.5 1013216
19 мая, чт
чт1900:00+3зсз31089100 0.0 1012280
03:00+3з389399 0.0 1012243
06:00+3з1697100 2.6 1011626
09:00+5с1395100 3.3 1010479
12:00+5ссз369281 2.9 1012522
15:00+8ссз577059 3.6 10121154
18:00+7ссз598018 1.1 1013959
21:00+3сз398893 1.2 1015230
20 мая, пт
пт2000:00+1сз4109431 0.0 1015270
03:00+1ссз4109728 0.0 1016362
06:00+1ссз499013 0.0 1018385
09:00+7ссз46635 0.0 10181151
12:00+10с454699 0.1 10182115
15:00+10ссз454199 0.1 10172124
18:00+9ссз4557100 0.1 10161068
21:00+5ссз227292 0.3 101613
21 мая, сб
сб2100:00+2с238584 0.0 101557
03:00+2с368570 0.0 1015115
06:00+3ссв368186 0.0 1015269
09:00+7с57535 0.0 10141260
12:00+9с6844100 0.0 10132128
15:00+10с6842100 0.0 10122121
18:00+10с484977 0.0 10112158
21:00+4с36685 0.0 1012102
22 мая, вс
вс2200:00+1с36710 0.0 101290
03:000ссз38740 0.0 1012125
06:00+3с49620 0.0 1013279
09:00+8с57440 0.0 10121463
12:00+10с56415 0.0 10111871
15:00+11с563961 0.0 10112119
18:00+11с35479 0.0 10111971
21:00+5ссз33675 0.0 101238